Regional Weather Roundup
Issued by NWS Memphis, TN

Home | Current Version | Previous Version | Text Only | Print | Product List | Glossary On
Versions: 1 2 3 4 5 6 7 8 9 10 11 12 13 14 15 16 17 18 19 20 21 22 23 24 25 26 27 28 29 30 31 32 33 34 35 36 37 38 39 40 41 42 43 44 45 46 47 48 49 50
000
ASUS44 KMEG 311410
RWRMEG
MEMPHIS CWA HOURLY WEATHER ROUNDUP
NATIONAL WEATHER SERVICE MEMPHIS TN
900 AM CDT FRI OCT 31 2014

...WEST TENNESSEE...

CITY           SKY/WX    TMP DP  RH WIND       PRES   REMARKS
MEMPHIS INTL   MOSUNNY   54  47  77 N12G18    30.09R
NWS MEMPHIS      N/A     51 N/A N/A MISG        N/A
JACKSON        SUNNY     49  47  93 N7        30.07R
LEXINGTON      PTSUNNY   48  46  93 CALM      30.03R
SAVANNAH       CLOUDY    48  48 100 N3        30.04R
DYERSBURG      PTSUNNY   52  39  62 N14G20    30.11R
UNION CITY     CLOUDY    50  46  87 N13       30.08R
PARIS          CLOUDY    50  46  87 N8        30.06R
HUNTINGDON     PTSUNNY   50  45  83 N3        30.06R


...EASTERN ARKANSAS...

CITY           SKY/WX    TMP DP  RH WIND       PRES   REMARKS
JONESBORO      SUNNY     51  45  79 N14G24    30.14R
WEST MEMPHIS   SUNNY     52  48  86 N14       30.10R
BATESVILLE     SUNNY     52  43  71 NW6       30.20R
NEWPORT        SUNNY     52  45  77 N20       30.17R
WALNUT RIDGE   MOSUNNY   52  43  71 N21       30.16R
BLYTHEVILLE    MOSUNNY   52  48  86 N21G26    30.12R
SEARCY         SUNNY     55  44  66 N12G17    30.20R
STUTTGART      SUNNY     55  45  67 N20G28    30.15R
PINE BLUFF     SUNNY     56  44  64 N16G26    30.15R
MONTICELLO     SUNNY     55  45  68 NW8       30.12R


...NORTH MISSISSIPPI...

CITY           SKY/WX    TMP DP  RH WIND       PRES   REMARKS
TUPELO         SUNNY     51  47  86 NE7       30.02R
OXFORD         SUNNY     50  48  93 NW10      30.07R
OLIVE BRANCH   MOSUNNY   48  48 100 N14       30.08R
TUNICA         SUNNY     52  46  82 N18       30.10R
CLARKSDALE     SUNNY     54  48  82 N12G20    30.09R
CORINTH        CLOUDY    48  48 100 N5        30.04R
GRENADA        SUNNY     54  48  82 N10         N/A
GREENWOOD      SUNNY     55  49  80 N8        30.06R
COLUMBUS       SUNNY     52  47  81 VRB1      30.01R
STARKVILLE     FAIR      52  46  82 NW3       30.01R
GOLDEN TRIANGL SUNNY     54  46  76 CALM      29.99S


...SOUTHEAST MISSOURI...

CITY           SKY/WX    TMP DP  RH WIND       PRES   REMARKS
WEST PLAINS    CLOUDY    47  39  74 N13G23    30.22R
POPLAR BLUFF   PTSUNNY   50  41  71 N15G23    30.15R
CAPE GIRARDEAU PTSUNNY   50  44  80 N21G28    30.15R


...NORTHWEST ALABAMA...

CITY           SKY/WX    TMP DP  RH WIND       PRES   REMARKS
MUSCLE SHOALS  CLOUDY    53  49  86 CALM      30.03R


...MIDDLE TENNESSEE...

CITY           SKY/WX    TMP DP  RH WIND       PRES   REMARKS
NASHVILLE      CLOUDY    50  46  86 NW7       30.03S
CLARKSVILLE    CLOUDY    50  47  89 N6        30.05R
DICKSON        PTSUNNY   48  46  93 N6        30.02R
COLUMBIA       CLOUDY   N/A N/A N/A CALM      30.01S


...WESTERN KENTUCKY...

CITY           SKY/WX    TMP DP  RH WIND       PRES   REMARKS
PADUCAH        CLOUDY    51  46  83 N18G26    30.11R
FORT CAMPBELL  CLOUDY    49  49 100 NW5       30.05R FOG


...CENTRAL ARKANSAS...

CITY           SKY/WX    TMP DP  RH WIND       PRES   REMARKS
LITTLE ROCK    SUNNY     56  42  59 N18       30.19R


SKY/WX REPORTED AS FAIR MEANS FEW OR NO CLOUDS BELOW
12 THOUSAND FEET.




USA.gov is the U.S. government's official web portal to all federal, state and local government web resources and services.